SUPERBIRD 7

导读

SUPERBIRD 7是日本于2008年8月14日发射的通信卫星,由日本太空开发事业团主导研发,旨在替代超鸟系列老旧卫星,为亚太区域提供高速通信、广播电视传输及企业专网服务。该卫星定点于地球静止轨道,搭载多频段转发器,具备强抗干扰能力,可满足偏远地区通信保障及应急通信需求,服役期间有效提升了东亚地区卫星通信容量与可靠性,推动了日本商业航天通信服务发展。

基本信息
目录编号:
33274
目录名称:
SUPERBIRD 7
国际标识:
2008-038A
轨道中心:
EARTH
卫星名称:
SUPERBIRD 7
卫星全名:
--
卫星状态:
在轨 (已飞行6520 天)
发射日期:
2008-08-14 UTC
国别 :
日本 (JP)
星等 :
--
轨道信息
数据来源 国际轨道数据 AOE轨道数据
星历时间 2026-06-20T18:57:03+0800
22小时前
查看轨道信息
2026-06-21T00:00:00+0800
17小时前
查看轨道信息
半长轴 42164.7km 42164.672km
偏心率 0.0006108 0.0006122
轨道倾角 2.370° 2.371°
近地点辐角 26.389° 25.271°
升交点赤经 81.225° 81.229°
平近点角 101.312° 178.369°
近地点 35760.808km 35760.721km
远地点 35812.318km 35812.349km
周期 1436.095分钟 1436.094分钟
每日圈数 1.002719 1.00272
详细信息
使用方式:
暂无
2D轨道图
3D轨道图
轨道高度分析图
轨道倾角分析图
轨道综合分析图
查看轨道综合分析图